Louisburg, NC

6:28 PM EST on February 24, 2017 (GMT -0500)
Franklin County

Weather History for KLHZ - March, 2013

Change the Weather History Date:

Tuesday, March 5, 2013

  Actual Average (KRDU) Record (KRDU)
Temperature  
Mean Temperature 40 °F -  
Max Temperature 51 °F 61 °F 83 °F (1967)
Min Temperature 30 °F 40 °F 15 °F (1960)
Degree Days  
Heating Degree Days 24    
Moisture  
Dew Point 28 °F    
Average Humidity 65    
Maximum Humidity 100    
Minimum Humidity 35    
Precipitation  
Precipitation 0.47 in - - ()
Sea Level Pressure  
Sea Level Pressure 29.94 in    
Wind  
Wind Speed 2 mph (ESE)    
Max Wind Speed 10 mph    
Max Gust Speed 16 mph    
Visibility 8 miles    
Events Rain    
Averages and records for this station are not official NWS values.
T = Trace of Precipitation, MM = Missing Value Source: NWS Daily Summary

Daily Weather History Graph

Daily Weather History Graph

Search for Another Location

Airport or City:

Trip Planner

Search our weather history database for the weather conditions in past years. The results will help you decide how hot, cold, wet, or windy it might be!

Date:

Astronomy

Mar. 05, 2013 Rise Set
Actual Time 6:37 AM EST 6:12 PM EST
Civil Twilight 6:12 AM EST 6:37 PM EST
Nautical Twilight 5:42 AM EST 7:07 PM EST
Astronomical Twilight 5:12 AM EST 7:37 PM EST
Moon 1:39 AM EST (3/5) 11:57 AM EST (3/5)
Length of Visible Light 12h 25m
Length of Day
11h 34m
Last Quarter, 41% of the Moon is Illuminated
Mar 5
Last Quarter
Mar 11
New
Mar 19
First Quarter
Mar 27
Full
Apr 3
Last Quarter

Hourly Weather History & Observations

Time (EST) Temp. Windchill Dew Point Humidity Pressure Visibility Wind Dir Wind Speed Gust Speed Precip Events Conditions
12:15 AM 30.2 °F - 21.2 °F 69% 30.07 in 10.0 mi Calm Calm - N/A   Clear
12:35 AM 32.0 °F - 19.4 °F 60% 30.08 in 10.0 mi Calm Calm - N/A   Scattered Clouds
12:55 AM 32.0 °F - 21.2 °F 64% 30.07 in 10.0 mi Calm Calm - N/A   Mostly Cloudy
1:15 AM 32.0 °F - 23.0 °F 69% 30.07 in 10.0 mi Calm Calm - N/A   Overcast
1:35 AM 35.6 °F - 21.2 °F 56% 30.08 in 10.0 mi Calm Calm - N/A   Overcast
1:55 AM 33.8 °F - 21.2 °F 60% 30.08 in 10.0 mi Calm Calm - N/A   Overcast
2:15 AM 32.0 °F - 24.8 °F 75% 30.07 in 10.0 mi Calm Calm - N/A   Overcast
2:35 AM 32.0 °F - 26.6 °F 80% 30.08 in 10.0 mi Calm Calm - N/A   Overcast
2:55 AM 33.8 °F - 26.6 °F 75% 30.07 in 10.0 mi Calm Calm - N/A   Overcast
3:15 AM 33.8 °F - 26.6 °F 75% 30.08 in 10.0 mi Calm Calm - N/A   Overcast
3:35 AM 33.8 °F - 26.6 °F 75% 30.08 in 10.0 mi Calm Calm - N/A   Overcast
3:55 AM 33.8 °F - 28.4 °F 81% 30.07 in 10.0 mi Calm Calm - N/A   Overcast
4:15 AM 33.8 °F - 26.6 °F 75% 30.08 in 10.0 mi Calm Calm - N/A   Overcast
4:35 AM 33.8 °F - 28.4 °F 81% 30.08 in 10.0 mi Calm Calm - N/A   Overcast
4:55 AM 33.8 °F - 28.4 °F 81% 30.08 in 10.0 mi Calm Calm - N/A   Overcast
5:15 AM 35.6 °F - 30.2 °F 81% 30.08 in 10.0 mi Calm Calm - N/A   Mostly Cloudy
5:35 AM 35.6 °F - 32.0 °F 87% 30.08 in 10.0 mi Calm Calm - N/A   Mostly Cloudy
5:55 AM 35.6 °F - 32.0 °F 87% 30.09 in 10.0 mi Calm Calm - N/A   Overcast
6:15 AM 35.6 °F - 32.0 °F 87% 30.08 in 10.0 mi Calm Calm - N/A   Overcast
6:35 AM 35.6 °F - 30.2 °F 81% 30.08 in 10.0 mi Calm Calm - N/A   Overcast
6:55 AM 33.8 °F - 30.2 °F 87% 30.08 in 10.0 mi Calm Calm - N/A   Scattered Clouds
7:15 AM 33.8 °F - 30.2 °F 87% 30.07 in 10.0 mi Calm Calm - N/A   Clear
7:35 AM 35.6 °F - 30.2 °F 81% 30.07 in 10.0 mi Calm Calm - N/A   Mostly Cloudy
8:15 AM 39.2 °F - 28.4 °F 65% 30.06 in 10.0 mi Calm Calm - N/A   Mostly Cloudy
8:35 AM 42.8 °F 40.1 °F 26.6 °F 53% 30.06 in 10.0 mi SSE 4.6 mph - N/A   Scattered Clouds
8:55 AM 44.6 °F 42.2 °F 26.6 °F 49% 30.05 in 10.0 mi ESE 4.6 mph - N/A   Scattered Clouds
9:15 AM 46.4 °F 43.5 °F 26.6 °F 46% 30.04 in 10.0 mi SSE 5.8 mph - N/A   Scattered Clouds
9:35 AM 48.2 °F - 23.0 °F 37% 30.04 in 10.0 mi ESE 5.8 mph - N/A   Clear
9:55 AM 48.2 °F - 26.6 °F 43% 30.05 in 10.0 mi SE 3.5 mph - N/A   Clear
10:15 AM 51.8 °F - 24.8 °F 35% 30.04 in 10.0 mi SSE 6.9 mph - N/A   Clear
10:35 AM 51.8 °F - 24.8 °F 35% 30.02 in 10.0 mi SSE 6.9 mph - N/A   Mostly Cloudy
10:55 AM 51.8 °F - 26.6 °F 38% 30.02 in 10.0 mi South 5.8 mph - N/A   Overcast
11:15 AM 51.8 °F - 26.6 °F 38% 30.02 in 10.0 mi South 6.9 mph - N/A   Overcast
11:35 AM 50.0 °F - 28.4 °F 43% 30.01 in 10.0 mi South 4.6 mph - N/A   Overcast
11:55 AM 50.0 °F - 28.4 °F 43% 30.00 in 10.0 mi South 3.5 mph - N/A   Overcast
12:15 PM 51.8 °F - 30.2 °F 44% 30.00 in 10.0 mi South 4.6 mph - N/A   Overcast
12:35 PM 51.8 °F - 28.4 °F 41% 29.99 in 10.0 mi Calm Calm - N/A   Overcast
12:55 PM 50.0 °F - 30.2 °F 47% 29.98 in 10.0 mi WSW 3.5 mph - N/A   Overcast
1:15 PM 46.4 °F 44.3 °F 39.2 °F 76% 29.98 in 5.0 mi WSW 4.6 mph - N/A Rain Light Rain
1:35 PM 44.6 °F - 44.6 °F 100% 29.97 in 3.0 mi Calm Calm - 0.02 in Rain Light Rain
1:55 PM - - - N/A% 29.96 in 4.0 mi SSE 3.5 mph - 0.05 in Rain Light Rain
2:15 PM - - - N/A% 29.95 in 5.0 mi SSE 4.6 mph - 0.02 in Rain Light Rain
2:35 PM - - - N/A% 29.94 in 5.0 mi SSE 3.5 mph - 0.03 in   Light Drizzle
2:55 PM - - - N/A% 29.94 in 2.0 mi Calm Calm - 0.06 in Rain Rain
3:15 PM - - - N/A% 29.93 in 2.5 mi SE 3.5 mph - 0.03 in   Drizzle
3:35 PM - - - N/A% 29.92 in 2.5 mi Calm Calm - 0.04 in   Drizzle
3:55 PM - - - N/A% 29.91 in 3.0 mi SE 3.5 mph - 0.05 in   Drizzle
4:15 PM - - - N/A% 29.90 in 2.5 mi Calm Calm - N/A Rain Light Rain
4:35 PM - - - N/A% 29.89 in 3.0 mi Calm Calm - 0.02 in   Light Drizzle
4:55 PM - - - N/A% 29.89 in 2.5 mi East 3.5 mph - 0.02 in Rain Light Rain
5:15 PM - - - N/A% 29.89 in 2.5 mi ENE 3.5 mph - 0.01 in Rain Light Rain
5:35 PM - - - N/A% 29.88 in 2.0 mi ENE 3.5 mph - 0.04 in Rain Rain
5:55 PM - - - N/A% 29.86 in 3.0 mi ENE 5.8 mph - 0.04 in   Overcast
6:15 PM - - - N/A% 29.86 in 3.0 mi NE 4.6 mph - N/A   Overcast
6:35 PM - - - N/A% 29.85 in 3.0 mi East 5.8 mph - N/A   Overcast
6:55 PM - - - N/A% 29.84 in 2.5 mi East 5.8 mph - N/A   Overcast
7:15 PM - - - N/A% 29.82 in 4.0 mi East 6.9 mph - N/A   Haze
7:35 PM - - - N/A% 29.80 in 5.0 mi East 9.2 mph 16.1 mph N/A   Haze
7:55 PM - - - N/A% 29.79 in 7.0 mi East 9.2 mph - N/A   Overcast
8:15 PM - - - N/A% 29.77 in 7.0 mi East 5.8 mph - N/A   Overcast
8:35 PM - - - N/A% 29.74 in 7.0 mi East 10.4 mph - N/A   Mostly Cloudy
8:55 PM - - - N/A% 29.72 in 10.0 mi East 9.2 mph - N/A   Scattered Clouds
9:15 PM - - - N/A% 29.71 in 7.0 mi East 6.9 mph - 0.01 in   Drizzle
9:35 PM - - - N/A% 29.71 in 10.0 mi East 9.2 mph - 0.02 in Rain Light Rain
9:55 PM - - - N/A% 29.70 in 10.0 mi East 8.1 mph - 0.02 in Rain Light Rain
10:15 PM - - - N/A% 29.68 in 7.0 mi ESE 4.6 mph - 0.03 in Rain Light Rain
10:35 PM - - - N/A% 29.66 in 5.0 mi ENE 6.9 mph - 0.07 in Rain Light Rain
10:55 PM - - - N/A% 29.64 in 3.0 mi ENE 6.9 mph - 0.17 in Rain Rain
11:15 PM - - - N/A% 29.63 in 5.0 mi ENE 6.9 mph - 0.05 in Rain Light Rain
11:35 PM - - - N/A% 29.62 in 7.0 mi ENE 6.9 mph - 0.05 in   Overcast
11:55 PM - - - N/A% 29.59 in 7.0 mi East 4.6 mph - 0.06 in   Overcast